Homestead AFB, FL

6:43 PM EDT on October 19, 2019 (GMT -0400)
Dade County-Homestead Regional

Weather History for KHST - September, 2019

Change the Weather History Date:

Sunday, September 22, 2019

  Actual Average Record
Temperature  
Mean Temperature 80 °F -  
Max Temperature 85 °F 89 °F 93 °F (1943)
Min Temperature 77 °F 72 °F 66 °F (1938)
Cooling Degree Days 16    
Growing Degree Days 30 (Base 50)    
Moisture  
Dew Point 73 °F    
Average Humidity 78    
Maximum Humidity 94    
Minimum Humidity 69    
Precipitation  
Precipitation 0.01 in - - ()
Sea Level Pressure  
Sea Level Pressure 29.98 in    
Wind  
Wind Speed 17 mph (NE)    
Max Wind Speed 21 mph    
Max Gust Speed 28 mph    
Visibility 10 miles    
Events Rain    
Averages and records for this station are not official NWS values.
T = Trace of Precipitation, MM = Missing Value Source: NWS Daily Summary

Daily Weather History Graph

Daily Weather History Graph

Search for Another Location

Airport or City:

Astronomy

Sep. 22, 2019 Rise Set
Actual Time 7:10 AM EDT 7:18 PM EDT
Civil Twilight 6:47 AM EDT 7:41 PM EDT
Nautical Twilight 6:20 AM EDT 8:07 PM EDT
Astronomical Twilight 5:53 AM EDT 8:34 PM EDT
Moon 12:33 AM EDT (9/22) 2:35 PM EDT (9/22)
Length of Visible Light 12h 53m
Length of Day
12h 08m
Last Quarter, 44% of the Moon is Illuminated
Sep 22
Last Quarter
Sep 28
New
Oct 5
First Quarter
Oct 13
Full
Oct 21
Last Quarter

Hourly Weather History & Observations

Time (EDT) Temp. Heat Index Dew Point Humidity Pressure Visibility Wind Dir Wind Speed Gust Speed Precip Events Conditions
12:56 AM 80.2 °F 85.2 °F 74.5 °F 83% 30.00 in 10.0 mi NE 17.3 mph - N/A   Overcast
1:31 AM 80.6 °F 85.4 °F 73.4 °F 79% 29.99 in 10.0 mi NE 16.1 mph 23.0 mph N/A   Overcast
1:53 AM 80.6 °F 86.2 °F 75.2 °F 84% 29.99 in 10.0 mi NE 18.4 mph 25.3 mph N/A Rain Light Rain
1:56 AM 79.9 °F - 74.8 °F 85% 29.99 in 10.0 mi NE 18.4 mph 25.3 mph 0.00 in Rain Light Rain
2:01 AM 80.6 °F 86.2 °F 75.2 °F 84% 29.98 in 10.0 mi NE 18.4 mph 25.3 mph N/A Rain Light Rain
2:04 AM 80.6 °F 86.2 °F 75.2 °F 84% 29.98 in 10.0 mi NE 20.7 mph 26.5 mph N/A   Overcast
2:14 AM 80.6 °F 86.2 °F 75.2 °F 84% 29.99 in 10.0 mi NE 15.0 mph 26.5 mph N/A   Mostly Cloudy
2:19 AM 80.6 °F 85.4 °F 73.4 °F 79% 29.99 in 10.0 mi NE 16.1 mph - N/A   Mostly Cloudy
2:24 AM 80.6 °F 85.4 °F 73.4 °F 79% 29.99 in 10.0 mi NE 16.1 mph - N/A   Mostly Cloudy
2:56 AM 80.4 °F 85.1 °F 73.6 °F 80% 29.98 in 10.0 mi NE 17.3 mph 23.0 mph 0.00 in   Overcast
3:56 AM 80.1 °F 83.8 °F 71.8 °F 76% 29.97 in 10.0 mi NE 15.0 mph 24.2 mph N/A   Mostly Cloudy
4:26 AM 80.6 °F 84.6 °F 71.6 °F 74% 29.97 in 10.0 mi NE 18.4 mph 26.5 mph N/A   Overcast
4:46 AM 80.6 °F 84.6 °F 71.6 °F 74% 29.97 in 10.0 mi NE 20.7 mph 26.5 mph N/A   Overcast
4:51 AM 80.6 °F 84.6 °F 71.6 °F 74% 29.97 in 10.0 mi NE 18.4 mph 26.5 mph N/A   Overcast
4:56 AM 80.1 °F 83.8 °F 71.8 °F 76% 29.97 in 10.0 mi NE 20.7 mph 26.5 mph N/A   Overcast
5:06 AM 80.6 °F 84.6 °F 71.6 °F 74% 29.97 in 10.0 mi NE 19.6 mph 26.5 mph N/A   Light Drizzle
5:15 AM 80.6 °F 84.6 °F 71.6 °F 74% 29.97 in 10.0 mi NE 18.4 mph 26.5 mph N/A   Overcast
5:20 AM 80.6 °F 84.6 °F 71.6 °F 74% 29.97 in 10.0 mi NE 17.3 mph 26.5 mph N/A   Overcast
5:21 AM 80.6 °F 84.6 °F 71.6 °F 74% 29.97 in 10.0 mi NE 18.4 mph 26.5 mph N/A   Light Drizzle
5:26 AM 78.8 °F - 71.6 °F 78% 29.97 in 10.0 mi NE 17.3 mph - N/A Rain Light Rain
5:32 AM 78.8 °F - 71.6 °F 78% 29.96 in 10.0 mi NNE 18.4 mph 26.5 mph N/A   Overcast
5:47 AM 80.6 °F 84.6 °F 71.6 °F 74% 29.97 in 10.0 mi NE 20.7 mph 27.6 mph N/A   Overcast
5:52 AM 80.6 °F 84.6 °F 71.6 °F 74% 29.97 in 10.0 mi NE 18.4 mph 27.6 mph N/A   Overcast
5:56 AM 79.9 °F - 72.0 °F 77% 29.97 in 10.0 mi NE 15.0 mph 23.0 mph 0.00 in   Overcast
6:56 AM 80.2 °F 83.7 °F 71.1 °F 73% 29.97 in 10.0 mi NE 19.6 mph 25.3 mph N/A   Overcast
7:56 AM 80.1 °F 83.2 °F 69.8 °F 71% 29.99 in 10.0 mi NE 17.3 mph 24.2 mph N/A   Overcast
8:56 AM 80.4 °F 83.5 °F 69.3 °F 69% 30.01 in 10.0 mi NE 17.3 mph 27.6 mph N/A   Overcast
9:56 AM 81.1 °F 85.2 °F 71.2 °F 72% 30.02 in 10.0 mi NE 13.8 mph 20.7 mph N/A   Mostly Cloudy
10:56 AM 81.7 °F 85.8 °F 70.9 °F 70% 30.03 in 10.0 mi NE 12.7 mph 21.9 mph N/A   Mostly Cloudy
11:56 AM 84.2 °F 90.6 °F 72.9 °F 69% 30.03 in 10.0 mi NE 17.3 mph - N/A   Scattered Clouds
1:56 PM 84.4 °F 91.0 °F 73.4 °F 69% 29.99 in 10.0 mi NE 18.4 mph 24.2 mph N/A   Mostly Cloudy
2:56 PM 83.3 °F 90.2 °F 74.1 °F 74% 29.97 in 10.0 mi NE 15.0 mph 25.3 mph N/A   Scattered Clouds
3:56 PM 83.5 °F 89.7 °F 73.0 °F 71% 29.96 in 10.0 mi NE 13.8 mph 21.9 mph N/A   Partly Cloudy
4:56 PM 83.8 °F 90.8 °F 74.1 °F 72% 29.95 in 10.0 mi NE 17.3 mph - N/A   Partly Cloudy
6:56 PM 81.7 °F 86.7 °F 72.5 °F 74% 29.95 in 10.0 mi NE 16.1 mph - N/A   Overcast
7:26 PM 80.6 °F 85.4 °F 73.4 °F 79% 29.96 in 10.0 mi NNE 19.6 mph - N/A   Mostly Cloudy
7:56 PM 80.4 °F 85.1 °F 73.6 °F 80% 29.96 in 10.0 mi NNE 16.1 mph - N/A   Overcast
8:16 PM 80.6 °F 85.4 °F 73.4 °F 79% 29.97 in 10.0 mi NE 17.3 mph - N/A   Overcast
8:37 PM 80.6 °F 86.2 °F 75.2 °F 84% 29.98 in 10.0 mi NNE 15.0 mph - N/A Rain Light Rain
8:44 PM 78.8 °F - 75.2 °F 89% 29.98 in 10.0 mi NNE 13.8 mph - N/A   Overcast
8:56 PM 79.7 °F - 73.9 °F 82% 29.99 in 10.0 mi NNE 12.7 mph - 0.00 in   Overcast
9:30 PM 80.6 °F 85.4 °F 73.4 °F 79% 29.99 in 10.0 mi NNE 16.1 mph 23.0 mph N/A   Light Drizzle
9:45 PM 78.8 °F - 73.4 °F 83% 30.00 in 10.0 mi NE 13.8 mph 21.9 mph N/A   Light Drizzle
9:56 PM 78.1 °F - 74.5 °F 89% 30.00 in 8.0 mi NE 16.1 mph - 0.00 in Rain Light Rain
10:27 PM 77.0 °F - 75.2 °F 94% 30.00 in 10.0 mi NE 11.5 mph - N/A   Overcast
10:32 PM 78.8 °F - 73.4 °F 83% 30.00 in 10.0 mi NE 12.7 mph - N/A   Overcast
10:56 PM 78.6 °F - 73.9 °F 85% 29.99 in 10.0 mi NE 12.7 mph - 0.01 in   Mostly Cloudy